| time (UTC) | temp F | wind direction | speed MPH | gust MPH | rain 1hr in | rain 24hr in | rain mn in | humidity % | barometer mb |
| 20260505194101 | 62 | 90 | 0.0 | 2.0 | 0.00 | 0.00 | 0.00 | 45 | 1012.7 |
| 20260505193201 | 62 | 90 | 0.0 | 2.0 | 0.00 | 0.00 | 0.00 | 48 | 1013.0 |
| 20260505192301 | 61 | 90 | 0.0 | 0.0 | 0.00 | 0.00 | 0.00 | 47 | 1012.9 |
| 20260505191401 | 62 | 90 | 0.0 | 2.0 | 0.00 | 0.00 | 0.00 | 45 | 1012.7 |
| 20260505190501 | 64 | 90 | 0.0 | 2.0 | 0.00 | 0.00 | 0.00 | 45 | 1012.8 |
| 20260505185601 | 65 | 90 | 1.0 | 4.0 | 0.00 | 0.00 | 0.00 | 42 | 1012.9 |
| 20260505183801 | 66 | 90 | 1.0 | 4.0 | 0.00 | 0.00 | 0.00 | 42 | 1012.6 |
| 20260505182901 | 66 | 90 | 0.0 | 4.0 | 0.00 | 0.00 | 0.00 | 42 | 1012.6 |
| 20260505182001 | 67 | 90 | 1.0 | 4.0 | 0.00 | 0.00 | 0.00 | 39 | 1012.6 |
| 20260505181101 | 68 | 90 | 0.0 | 2.0 | 0.00 | 0.00 | 0.00 | 38 | 1012.6 |
| 20260505180201 | 68 | 90 | 0.0 | 2.0 | 0.00 | 0.00 | 0.00 | 38 | 1012.4 |
| 20260505175301 | 69 | 112 | 0.0 | 2.0 | 0.00 | 0.00 | 0.00 | 37 | 1012.3 |
| 20260505174401 | 69 | 90 | 0.0 | 2.0 | 0.00 | 0.00 | 0.00 | 37 | 1012.2 |
| 20260505173501 | 70 | 90 | 1.0 | 2.0 | 0.00 | 0.00 | 0.00 | 37 | 1012.2 |
| 20260505172601 | 71 | 112 | 0.0 | 2.0 | 0.00 | 0.00 | 0.00 | 36 | 1012.4 |
| 20260505171701 | 73 | 112 | 1.0 | 2.0 | 0.00 | 0.00 | 0.00 | 35 | 1012.1 |
| 20260505170801 | 74 | 112 | 2.0 | 4.0 | 0.00 | 0.00 | 0.00 | 33 | 1012.2 |
| 20260505165901 | 75 | 90 | 2.0 | 4.0 | 0.00 | 0.00 | 0.00 | 33 | 1012.2 |
| 20260505165001 | 76 | 158 | 2.0 | 4.0 | 0.00 | 0.00 | 0.00 | 32 | 1012.0 |
| 20260505164101 | 77 | 112 | 2.0 | 4.0 | 0.00 | 0.00 | 0.00 | 31 | 1012.0 |
| 20260505163201 | 77 | 112 | 2.0 | 4.0 | 0.00 | 0.00 | 0.00 | 31 | 1011.9 |
| 20260505161401 | 78 | 158 | 3.0 | 6.0 | 0.00 | 0.00 | 0.00 | 28 | 1011.9 |
| 20260505152001 | 80 | 90 | 3.0 | 8.0 | 0.00 | 0.00 | 0.00 | 22 | 1012.0 |